Showing default

KSM1-B, 46914

Orbit data source: Space-Track

KSM1-B, 46914 is a payload satellite owned by Kleos Space (LU) in LEO that was launched on Sat, 07 Nov 2020 UTC via a PSLV-DL launch vehicle from the Sirharikota (SRI). Payload-class satellites include a variety of spacecraft equipped with specific instruments for various scientific and technological missions. These include communications satellites like Starlink; space stations such as the ISS; scientific satellites like the Hubble; Earth observation satellites from companies like Planet Labs, Umbra, and HawkEye 360; GPS; miniature CubeSats for education and research; and military/defense satellites.

Loading next visibility...
Identifier
46914, 2020-081K
Orbit
LEO
Country
Flag of UnknownUnknown / LUXE
Related business
Manufacturer
GOMSpace
Mission
Operational Commercial Sigint
Bus & Motor
CUBESAT 6U, Unknown motor
Mass
~10 kg wet, ~10 kg dry
Launch date (UTC)
2020-11-07 (5 years ago)
Launch vehicle
PSLV-DL
Launch site
Sirharikota (SRI)
Object type
Payload
Rocket body
Debris
Shape & HBR
Box, 1.0 m
Radar Cross Section
0.080 m², Small (<0.1 m²)

Expand to show TLE details & history
Last TLE update: 9 hours ago

TLE from 9 hours ago
0 KSM1-B
1 46914U 20081K   25288.92219823  .00010787  00000-0  49699-3 0  9999
2 46914  36.9002 126.3465 0007268   6.9339 353.1507 15.19721168274947
Epoch: 2025-10-15T22:07Z
TLE epoch observation values (Epoch: 2025-10-15T22:07:57.927Z)
Latitude
-0.00004°
Longitude
129.66576°
Altitude
500.825 km
Speed
7.619 km/s
True Right ascension
08h 25m 23s
True Declination
0° 00' 00"
Sunlit
Object was in daylight at epoch
Visualization orbit readout
Latitude
Unknown
Longitude
Unknown
Altitude
Unknown
Speed
Unknown
Apparent Right ascension
Unknown
Apparent Declination
Unknown
Sunlit
N/A
Visualization observer readout
Local Sidereal Time
02:03:16
Azimuth
Unknown
Elevation
Unknown
Doppler factor
Unknown
Orbital elements
Apogee altitude
514.632 km
Perigee altitude
504.619 km
Semi-major axis
6,887.762 km
Eccentricity
0.00073
Inclination
36.9002°
RAAN
126.3465°
Arg. of periapsis
6.9339°
True anomaly
353.14076°
Mean anomaly
353.1507°
Eccentric anomaly
353.14573°
Mean motion
3.79687 °/min
Orbital period
94.81 mins
BSTAR
0.00049699
Loading maneuver chart data...
Computing Atmospheric mass density...
Loading historical data...
Loading historical data...
Loading historical data...
Loading historical data...
Loading historical data...
Loading historical data...
Loading historical data...

Documentation

Showing up to 5 results
|